EGBBEGHH

Guest
Details From EGBB - Birmingham
To EGHH - Bournemouth
Flight Number -
Tags generated
Created
Modified
Stats Distance 101 nm / 187 km
Max Altitude 7,500 ft / 2,286 m
Waypoints 3
Social Downloads 1
Likes 0
Share VATSIM

Download

Looking for another format? Having issues loading an existing format? Contact us
Advertisement - Login to hide

Notes

Basic altitude profile: - Ascent Rate: 2500ft/min - Ascent Speed: 250kts - Cruise Altitude: 35000ft - Cruise Speed: 420kts - Descent Rate: 1500ft/min - Descent Speed: 250kts Options: - Use NATs: yes - Use PACOTS: yes - Use low airways: yes - Use high airways: yes

Route

EGBB DISIT EGHH

ID Type Via Altitude Latitude Longitude Leg Dist Tot Dist Heading (true) Name
O EGBB APT - 0 ft / 0 m 52.45597˚ -1.75038˚ - 0 nm - Birmingham
DISIT FIX - 7,500 ft / 2,286 m 52.10306˚ -1.71139˚ 21 nm 21 nm 176° / 176° -
O EGHH APT - 0 ft / 0 m 50.78007˚ -1.84253˚ 79 nm 100 nm 184° / 183° Bournemouth

Altitude Profile

Advertisement - Login to hide

EGBB

Details ICAO EGBB (BHX)
Name Birmingham
Region United Kingdom
Timezone Europe/London (UTC+0.0)
Stats Elevation 327 ft / 100 m (AMSL)
Location 52.455966° -1.750378°
Runways 1
Magnetic Variation 1.141° W

METAR

EGBB 121220Z 20005KT 170V230 CAVOK 01/M01 Q1007

Decode

TAF

TAF EGBB 121102Z 1212/1312 18003KT 9999 FEW035 PROB30 TEMPO 1212/1217 BKN004 BECMG 1217/1220 19013KT 3000 RADZ BKN003 TEMPO 1218/1224 22015G25KT PROB30 TEMPO 1221/1304 0300 FZFG BKN001 BECMG 1304/1307 9999 NSW SCT030 BECMG 1308/1311 6000 RA BKN009 PROB30 TEMPO 1310/1312 23017G35KT 4000 +RA BKN004

Decode

Departure Runways

ID Width Length Bearing (true) Bearing (mag) Surface Threshold Offset Overrun Length
15 151 ft / 46 m 8,477 ft / 2,584 m 145.87° 147.01° Asphalt 925 ft / 282 m 0 ft / 0 m
33 151 ft / 46 m 8,477 ft / 2,584 m 325.89° 327.03° Asphalt 958 ft / 292 m 0 ft / 0 m

EGHH

Details ICAO EGHH (BOH)
Name Bournemouth
Region United Kingdom
Timezone Europe/London (UTC+0.0)
Stats Elevation 38 ft / 12 m (AMSL)
Location 50.780065° -1.842533°
Runways 1
Magnetic Variation 0.963° W

METAR

EGHH 121220Z 16003KT CAVOK 05/01 Q1009

Decode

TAF

Not found

Destination Runways

ID Width Length Bearing (true) Bearing (mag) Surface Threshold Offset Overrun Length
08 151 ft / 46 m 7,440 ft / 2,268 m 75.27° 76.23° Asphalt 1,424 ft / 434 m 0 ft / 0 m
26 151 ft / 46 m 7,440 ft / 2,268 m 255.29° 256.25° Asphalt 0 ft / 0 m 328 ft / 100 m

Approach Navaids

Runway Type Ident Frequency Range Bearing (true) Bearing (mag) Slope Elevation
08 Localiser IBMH 110.50 MHz 18 nm / 33 km 75.09° 76.05° - 32 ft / 10 m (AMSL)
08 Glidescope IBMH 110.50 MHz 18 nm / 33 km 75.09° 76.05° 3.00° 30 ft / 9 m (AMSL)
08 DME IBMH 110.50 MHz 20 nm / 37 km - - - 31 ft / 9 m (AMSL)
26 Localiser IBH 110.50 MHz 18 nm / 33 km 255.41° 256.37° - 33 ft / 10 m (AMSL)
26 Glidescope IBH 110.50 MHz 18 nm / 33 km 255.41° 256.37° 3.00° 36 ft / 11 m (AMSL)
26 DME IBH 110.50 MHz 20 nm / 37 km - - - 31 ft / 9 m (AMSL)

Popular Alternatives